Toms River, NJ

7:14 AM EDT on October 21, 2019 (GMT -0400)
Miller

Weather History for KMJX - August, 2019

Change the Weather History Date:

Saturday, August 10, 2019

  Actual Average Record
Temperature  
Mean Temperature 70 °F -  
Max Temperature 86 °F 86 °F 94 °F (1961)
Min Temperature 57 °F 64 °F 49 °F (1989)
Cooling Degree Days 6    
Growing Degree Days 20 (Base 50)    
Moisture  
Dew Point 59 °F    
Average Humidity 54    
Maximum Humidity 97    
Minimum Humidity 37    
Precipitation  
Precipitation 0.01 in - - ()
Sea Level Pressure  
Sea Level Pressure 29.88 in    
Wind  
Wind Speed 4 mph (WNW)    
Max Wind Speed 18 mph    
Max Gust Speed 26 mph    
Visibility 10 miles    
Events      
Averages and records for this station are not official NWS values.
T = Trace of Precipitation, MM = Missing Value Source: NWS Daily Summary

Daily Weather History Graph

Daily Weather History Graph

Search for Another Location

Airport or City:

Astronomy

Aug. 10, 2019 Rise Set
Actual Time 6:03 AM EDT 8:00 PM EDT
Civil Twilight 5:34 AM EDT 8:29 PM EDT
Nautical Twilight 4:58 AM EDT 9:05 PM EDT
Astronomical Twilight 4:19 AM EDT 9:44 PM EDT
Moon 4:40 PM EDT (8/10) 1:38 AM EDT (8/10)
Length of Visible Light 14h 55m
Length of Day
13h 56m
Waxing Gibbous, 79% of the Moon is Illuminated
Aug 10
Waxing Gibbous
Aug 15
Full
Aug 23
Last Quarter
Aug 30
New
Sep 5
First Quarter

Hourly Weather History & Observations

Time (EDT) Temp. Heat Index Dew Point Humidity Pressure Visibility Wind Dir Wind Speed Gust Speed Precip Events Conditions
12:56 AM 64.0 °F - - N/A% 29.84 in 10.0 mi Calm Calm - N/A   Partly Cloudy
1:56 AM 62.1 °F - - N/A% 29.84 in 10.0 mi Calm Calm - N/A   Clear
2:56 AM 64.9 °F - - N/A% 29.85 in 10.0 mi WNW 6.9 mph - N/A   Clear
3:56 AM 61.0 °F - - N/A% 29.85 in 10.0 mi Calm Calm - N/A   Clear
4:56 AM 59.0 °F - - N/A% 29.86 in 10.0 mi Calm Calm - N/A   Clear
5:56 AM 57.9 °F - - N/A% 29.87 in 10.0 mi Calm Calm - N/A   Clear
6:56 AM 57.9 °F - - N/A% 29.88 in 10.0 mi Calm Calm - N/A   Clear
7:56 AM 69.1 °F - 64.9 °F 87% 29.89 in 10.0 mi SW 4.6 mph - N/A   Clear
8:56 AM 73.9 °F - 60.1 °F 62% 29.89 in 10.0 mi WNW 6.9 mph - N/A   Clear
9:56 AM 78.1 °F - 61.0 °F 56% 29.90 in 10.0 mi WNW 8.1 mph - N/A   Clear
10:56 AM 79.0 °F - 60.1 °F 52% 29.89 in 10.0 mi NW 8.1 mph - N/A   Clear
11:56 AM 81.0 °F 81.9 °F 62.1 °F 52% 29.89 in 10.0 mi West 8.1 mph - N/A   Clear
12:56 PM 84.0 °F 84.0 °F 60.1 °F 44% 29.87 in 10.0 mi West 15.0 mph 24.2 mph N/A   Partly Cloudy
1:56 PM 84.0 °F 83.0 °F 55.9 °F 38% 29.85 in 10.0 mi West 18.4 mph 26.5 mph N/A   Scattered Clouds
2:56 PM 84.9 °F 83.7 °F 55.9 °F 37% 29.84 in 10.0 mi West 12.7 mph 21.9 mph N/A   Clear
3:56 PM 84.0 °F 83.0 °F 55.9 °F 38% 29.83 in 10.0 mi WNW 13.8 mph 21.9 mph N/A   Partly Cloudy
4:56 PM 82.9 °F 82.0 °F 55.0 °F 38% 29.84 in 10.0 mi NW 11.5 mph 23.0 mph N/A   Partly Cloudy
5:56 PM 81.0 °F 80.8 °F 55.9 °F 42% 29.84 in 10.0 mi NW 15.0 mph 20.7 mph N/A   Clear
6:56 PM 80.1 °F 80.1 °F 55.0 °F 42% 29.87 in 10.0 mi NW 8.1 mph - N/A   Clear
7:56 PM 75.0 °F - 55.9 °F 51% 29.89 in 10.0 mi NW 3.5 mph - N/A   Clear
8:56 PM 68.0 °F - 61.0 °F 78% 29.91 in 10.0 mi Calm Calm - N/A   Clear
9:56 PM 64.9 °F - 64.0 °F 97% 29.94 in 10.0 mi Calm Calm - N/A   Clear
10:56 PM 63.0 °F - - N/A% 29.96 in 10.0 mi Calm Calm - 0.01 in   Mostly Cloudy
11:56 PM 62.1 °F - - N/A% 29.97 in 10.0 mi Calm Calm - N/A   Overcast